Flag for Qatar Weather past 2 weeks in Al-Jamiliyah, Qatar

Now
88 °F

Sunny.


Feels Like: 96 °F
Forecast: 84 / 104 °F
Wind: 6 mph from Northeast

Location: Al Udeid

Current Time: May 31, 2015 at 12:40:16 AM

Latest Report: May 30, 2015 at 11:58 PM


Visibility: N/A

Pressure: 29.71 "Hg

Humidity: 62%

Dew point: 73 °F

Location of Al-JamiliyahLocation

Historic Weather in Al-Jamiliyah — Graph

°F

Al-Jamiliyah temperature yesterday

Maximum temperature yesterday: 108 °F (at 1:58 PM)
Minimum temperature yesterday: 79 °F (at 3:57 AM)
Average temperature yesterday: 93 °F

Past Weeks' High & Low Weather Summary

 TemperatureHumidityPressure
High114 °F (May 23, 2:58 PM)100% (May 30, 3:57 AM)29.82 "Hg (May 30, 3:57 AM)
Low38 °F (May 17, 9:58 AM)6% (May 19, 12:58 PM)29.60 "Hg (May 23, 4:58 PM)
Average94 °F27%29.71 "Hg
* Reported May 15 10:58 PM — May 30 10:58 PM, Al-Jamiliyah, Weather by CustomWeather, © 2015

Note: Actual official high and low records may vary slightly from our data, if they occured in-between our weather recording intervals... More about our weather records

Advertising

Al-Jamiliyah weather history for previous 24 hours

 ConditionsComfort  
Time TempWeatherWind HumidityBarometerVisibility
10:58 PM
Sat, May 30
89 °FSunny.8 mph64%29.72 "HgN/A
9:58 PM90 °FSunny.8 mph60%29.72 "HgN/A
8:58 PM92 °FSunny.10 mph44%29.72 "HgN/A
7:58 PM94 °FSunny.7 mph33%29.71 "HgN/A
6:58 PM96 °FSunny.9 mph30%29.69 "HgN/A
5:58 PM100 °FSunny.10 mph24%29.68 "HgN/A
4:58 PM104 °FSunny.10 mph15%29.68 "HgN/A
3:58 PM106 °FSunny.15 mph12%29.67 "HgN/A
2:58 PM107 °FSunny.18 mph10%29.68 "HgN/A
1:58 PM108 °FSunny.17 mph9%29.69 "HgN/A
12:58 PM107 °FSunny.16 mph10%29.71 "HgN/A
11:58 AM106 °FClear.17 mph12%29.73 "HgN/A
10:58 AM104 °FPassing clouds.17 mph17%29.73 "HgN/A
9:58 AM101 °FClear.13 mph19%29.74 "HgN/A
8:58 AM97 °FClear.12 mph25%29.74 "HgN/A
7:58 AM85 °FFog.10 mph100%29.74 "Hg6 mi
5:58 AM79 °FFog.No wind94%29.72 "HgN/A
4:58 AM79 °FFog.No wind100%29.69 "HgN/A
3:58 AM79 °FFog.No wind100%29.68 "Hg0 mi
3:57 AM79 °FFog.2 mph100%29.68 "Hg0 mi
2:58 AM80 °FFog.6 mph91%29.66 "Hg2 mi
1:58 AM79 °FFog.No wind82%29.66 "Hg3 mi
12:58 AM81 °FSunny.3 mph74%29.66 "Hg5 mi
Weather by CustomWeather, © 2015

See weather overviewHow to use our weather pages